Williamstown, MA

5:08 AM EDT on August 26, 2016 (GMT -0400)
Harriman And West

Weather History for KAQW - November, 2012

Change the Weather History Date:

Friday, November 23, 2012

  Actual Average Record
Temperature  
Mean Temperature 44 °F -  
Max Temperature 59 °F 43 °F 63 °F (1999)
Min Temperature 28 °F 28 °F 14 °F (2000)
Degree Days  
Heating Degree Days 22    
Moisture  
Dew Point 30 °F    
Average Humidity 61    
Maximum Humidity 89    
Minimum Humidity 28    
Precipitation  
Precipitation 0.02 in - - ()
Sea Level Pressure  
Sea Level Pressure 29.86 in    
Wind  
Wind Speed 4 mph (ESE)    
Max Wind Speed 12 mph    
Max Gust Speed 17 mph    
Visibility 10 miles    
Events Rain    
Averages and records for this station are not official NWS values.
T = Trace of Precipitation, MM = Missing Value Source: NWS Daily Summary

Daily Weather History Graph

Daily Weather History Graph

Search for Another Location

Airport or City:

Trip Planner

Search our weather history database for the weather conditions in past years. The results will help you decide how hot, cold, wet, or windy it might be!

Date:

Astronomy

Nov. 23, 2012 Rise Set
Actual Time 6:54 AM EST 4:23 PM EST
Civil Twilight 6:23 AM EST 4:54 PM EST
Nautical Twilight 5:48 AM EST 5:29 PM EST
Astronomical Twilight 5:15 AM EST 6:02 PM EST
Moon 1:41 PM EST (11/23) 2:05 AM EST (11/23)
Length of Visible Light 10h 30m
Length of Day
9h 28m
Waxing Gibbous, 79% of the Moon is Illuminated
Nov 23
Waxing Gibbous
Nov 28
Full
Dec 6
Last Quarter
Dec 13
New
Dec 20
First Quarter

Hourly Weather History & Observations

Time (EST) Temp. Windchill Dew Point Humidity Pressure Visibility Wind Dir Wind Speed Gust Speed Precip Events Conditions
12:52 AM 32.0 °F - 26.1 °F 79% 30.10 in 10.0 mi Calm Calm - N/A   Clear
1:52 AM 32.0 °F 24.8 °F 26.1 °F 79% 30.09 in 10.0 mi East 8.1 mph - N/A   Clear
2:52 AM 30.0 °F 24.1 °F 25.0 °F 82% 30.08 in 10.0 mi East 5.8 mph - N/A   Clear
3:52 AM 28.0 °F - 24.1 °F 85% 30.07 in 10.0 mi Calm Calm - N/A   Clear
4:52 AM 28.9 °F 25.2 °F 25.0 °F 85% 30.06 in 10.0 mi ESE 3.5 mph - N/A   Clear
5:52 AM 30.9 °F 24.3 °F 26.1 °F 82% 30.03 in 10.0 mi East 6.9 mph - N/A   Clear
6:52 AM 30.0 °F 26.5 °F 26.1 °F 85% 30.02 in 9.0 mi East 3.5 mph - N/A   Clear
7:52 AM 35.1 °F 28.6 °F 28.0 °F 76% 30.01 in 10.0 mi East 8.1 mph - N/A   Clear
8:52 AM 42.1 °F 35.7 °F 32.0 °F 67% 29.98 in 10.0 mi ESE 11.5 mph - N/A   Clear
9:52 AM 46.9 °F - 32.0 °F 56% 29.94 in 10.0 mi East 8.1 mph - N/A   Clear
10:52 AM 53.1 °F - 30.9 °F 43% 29.90 in 10.0 mi East 5.8 mph - N/A   Clear
11:52 AM 55.9 °F - 25.0 °F 30% 29.86 in 10.0 mi WSW 8.1 mph - N/A   Partly Cloudy
12:52 PM 59.0 °F - 26.1 °F 28% 29.81 in 10.0 mi ESE 5.8 mph - N/A   Clear
1:52 PM 57.9 °F - 27.0 °F 31% 29.78 in 10.0 mi Calm Calm - N/A   Clear
2:52 PM 59.0 °F - 27.0 °F 29% 29.74 in 10.0 mi NNW 3.5 mph - N/A   Clear
3:52 PM 55.9 °F - 28.0 °F 34% 29.72 in 10.0 mi Calm Calm - N/A   Clear
4:52 PM 52.0 °F - 28.9 °F 41% 29.72 in 10.0 mi Variable 6.9 mph - N/A   Partly Cloudy
5:52 PM 55.0 °F - 28.9 °F 37% 29.72 in 10.0 mi WSW 4.6 mph 17.3 mph N/A   Overcast
6:52 PM 54.0 °F - 28.9 °F 38% 29.70 in 10.0 mi WSW 4.6 mph - N/A   Overcast
7:52 PM 52.0 °F - 30.9 °F 45% 29.70 in 10.0 mi West 6.9 mph - 0.00 in Rain Light Rain
8:52 PM 48.0 °F - 36.0 °F 63% 29.69 in 6.0 mi Calm Calm - 0.02 in Rain Light Rain
9:52 PM 44.1 °F 42.5 °F 41.0 °F 89% 29.68 in 10.0 mi Variable 3.5 mph - 0.00 in   Overcast
10:52 PM 44.1 °F - 39.9 °F 85% 29.63 in 9.0 mi Calm Calm - 0.00 in   Overcast
11:52 PM 43.0 °F - 39.0 °F 86% 29.61 in 7.0 mi Calm Calm - N/A   Mostly Cloudy